Theta_e
302 302 302 303 302 302 302 301 301 301 301 302 304 304 304 305 304 302 301 301 302 302 302 302 302 302 302 302 302 302 301 302 302 305 305 305 308 308 308 308 310 310 312 312 312 317 317 324 328 335 330 331 332 332
302 302 302 303 302 302 301 301 300 300 301 303 304 305 305 305 305 305 303 303 301 302 302 302 301 301 301 302 302 302 303 302 304 304 305 305 307 308 307 310 310 312 314 316 313 314 316 323 329 330 329 331 332 331
302 302 302 302 302 302 301 301 300 300 301 304 305 306 305 305 305 305 306 303 303 302 300 301 303 303 303 302 302 302 302 302 302 303 303 305 309 308 307 309 312 311 312 315 318 319 322 325 328 328 330 331 333 333
302 302 302 302 302 301 301 301 300 300 302 305 306 305 307 307 306 305 305 305 304 302 300 301 303 303 304 303 303 303 302 303 303 304 305 306 307 307 307 308 309 309 309 312 315 318 326 327 326 330 329 335 332 338
301 301 302 301 301 301 300 300 300 301 303 306 306 306 308 308 307 306 305 304 304 303 301 302 303 305 304 305 303 303 302 302 302 304 306 308 307 307 307 307 308 307 309 311 314 317 324 325 325 329 329 330 330 336
300 299 300 299 299 300 300 301 301 302 304 306 308 310 309 308 307 306 304 303 303 303 302 304 304 306 305 305 305 304 303 302 302 303 305 306 306 305 308 310 310 310 310 313 316 317 322 325 326 328 328 329 331 334
303 302 302 302 302 301 301 302 302 303 305 308 312 311 309 308 307 305 304 305 304 303 302 303 305 305 306 310 308 306 305 303 303 303 305 305 305 307 305 309 309 309 308 312 317 320 325 326 325 327 328 331 332 333
307 308 308 308 307 305 303 303 303 305 307 312 312 310 310 310 308 306 306 306 305 303 301 304 305 305 308 310 310 309 305 303 304 305 308 309 308 307 307 307 308 311 308 311 319 322 325 325 326 326 327 329 331 331
309 309 309 310 310 308 306 304 305 306 312 312 312 310 310 309 308 307 306 305 304 303 300 302 306 307 307 310 311 311 310 312 310 311 312 310 308 308 310 314 318 316 311 313 324 325 324 325 326 327 328 328 328 328
309 309 310 310 310 308 306 305 307 312 312 313 312 310 310 310 309 307 306 303 303 302 301 300 302 306 306 310 313 312 311 313 312 312 311 310 310 312 315 316 317 321 322 322 321 322 323 323 323 325 327 328 329 329
310 310 310 310 309 306 306 309 312 312 313 313 313 311 311 310 309 309 305 303 300 301 300 301 301 305 307 310 312 311 311 308 310 312 313 311 312 314 317 316 321 321 321 321 321 322 322 322 323 322 322 323 324 326
310 310 310 308 306 306 311 312 312 313 313 313 313 311 312 312 312 312 311 306 305 308 305 306 306 305 308 310 310 310 307 307 313 312 312 312 317 316 318 319 321 322 322 321 320 322 322 324 325 325 325 325 324 323
310 309 308 307 306 310 311 312 312 313 313 313 312 312 313 314 314 315 314 315 318 316 315 314 316 313 311 311 311 314 317 316 313 311 310 316 317 316 313 316 317 320 322 322 323 322 322 322 324 325 325 325 325 325
309 308 308 307 308 311 312 312 312 313 314 313 312 309 313 315 314 315 314 313 314 315 315 317 316 316 315 313 313 317 315 313 315 313 317 315 313 312 311 311 311 313 318 319 318 319 319 322 323 323 323 323 323 323
310 309 309 309 311 312 313 313 313 314 314 314 314 310 312 313 312 311 310 311 312 314 316 316 314 314 313 315 314 313 315 313 312 318 315 313 311 309 312 313 312 312 311 310 316 316 318 317 316 316 320 321 321 321
310 309 311 312 312 312 313 314 314 314 315 315 314 312 313 311 310 310 309 308 310 314 316 315 314 314 315 316 316 317 313 314 317 316 315 315 309 308 307 307 307 308 310 312 311 311 311 313 315 315 316 316 317 318
310 311 311 312 313 313 313 314 314 315 315 314 313 313 312 311 310 310 308 307 310 312 313 313 314 315 314 314 313 312 314 312 311 309 311 310 307 307 308 308 308 307 307 307 308 309 310 310 311 312 313 312 314 314
312 312 311 311 312 313 314 314 314 314 314 313 313 312 312 310 310 310 309 307 308 309 310 310 309 309 311 311 309 307 306 307 307 307 309 307 306 305 306 306 306 306 307 307 307 307 308 309 310 310 310 310 311 310
314 314 313 312 312 313 313 314 314 314 314 313 311 312 311 310 309 309 309 307 306 307 308 307 306 307 307 305 305 303 305 306 306 304 305 305 305 305 305 305 305 306 306 306 306 306 306 306 307 308 308 308 308 308
313 316 316 315 313 312 313 314 314 314 314 315 311 311 310 310 310 310 309 309 308 306 305 304 305 304 303 302 302 303 305 307 306 304 304 304 304 304 304 305 304 305 305 305 306 306 306 306 305 305 305 306 306 306
313 315 316 317 316 315 315 315 315 315 315 315 314 313 311 312 311 310 310 309 309 309 307 304 302 301 301 301 302 302 303 305 304 304 303 302 303 303 303 303 304 303 303 302 302 302 302 302 304 304 304 304 304 304
312 314 316 317 317 317 316 317 317 317 316 316 316 315 315 313 312 311 310 310 310 309 308 304 301 301 301 301 301 301 302 302 302 302 302 302 302 302 301 300 301 300 299 299 299 299 299 299 300 301 303 302 302 301
313 315 317 318 318 317 317 318 317 317 314 315 314 313 314 314 313 310 309 309 309 307 305 302 301 301 301 300 300 299 299 299 300 300 299 299 299 299 299 298 298 298 297 297 296 296 296 297 298 301 301 300 300 299
314 316 318 318 317 317 317 318 318 318 317 315 311 312 311 314 313 310 306 309 309 309 305 303 302 301 300 300 299 298 298 298 297 298 298 297 297 297 297 297 297 296 296 296 295 295 296 296 297 297 297 296 296 295
318 318 319 317 316 315 314 314 315 313 313 313 313 311 310 312 311 307 306 308 309 309 308 306 304 303 300 299 298 297 297 296 296 296 297 297 296 296 296 296 296 296 296 295 295 294 295 295 294 294 294 294 293 293
308 316 318 316 315 314 313 314 314 314 312 314 312 312 312 308 309 308 306 309 309 309 307 306 305 303 300 298 298 297 296 295 295 295 294 294 294 294 294 294 294 295 295 294 294 294 294 294 293 293 293 293 292 292
311 314 316 318 317 315 315 315 314 310 311 313 311 311 309 310 309 307 308 307 306 305 304 304 303 301 299 298 298 297 296 295 294 293 293 293 293 293 293 293 293 294 294 294 294 294 293 293 293 293 292 292 292 291
316 316 315 318 319 318 315 312 310 309 309 311 311 310 310 309 306 307 305 305 304 303 303 302 300 299 298 298 297 296 296 295 294 292 292 292 292 292 292 292 293 293 293 293 293 293 293 293 292 292 292 292 291 291
317 317 317 317 318 319 318 313 311 312 310 312 310 307 309 308 308 307 306 308 308 303 302 301 301 299 298 297 297 296 295 295 294 293 292 291 291 291 291 291 292 292 293 293 292 292 292 292 292 292 292 292 292 291
319 318 317 317 316 314 316 316 314 313 310 311 311 310 310 309 308 307 308 308 305 303 302 302 300 299 298 297 297 296 295 294 294 293 292 292 292 292 291 291 292 292 292 292 292 292 292 292 292 292 292 292 292 293
319 319 319 318 318 318 317 316 314 313 311 311 311 311 311 310 310 309 309 308 305 303 302 302 300 299 298 297 297 296 295 294 294 293 293 292 292 292 292 291 291 292 292 292 292 292 292 292 292 292 292 292 292 292
319 319 319 317 317 316 316 315 314 313 312 311 312 312 311 311 311 311 310 309 305 303 302 301 300 299 298 297 296 295 295 294 294 294 293 293 293 292 292 292 291 291 291 292 292 292 292 292 292 292 292 291 291 292
315 316 316 317 315 314 314 314 313 313 313 312 312 312 312 312 311 310 308 307 304 302 301 301 300 299 298 297 296 295 295 295 294 294 293 293 293 293 292 292 292 292 291 291 291 291 291 291 291 291 291 291 291 292
Wind_Speed
22 23 23 24 25 26 28 29 30 30 31 30 29 27 26 22 19 18 21 15 14 12 23 26 22 19 18 12 4 4 7 2 1 1 2 3 4 3 4 5 5 8 8 5 7 6 18 2 7 4 4 14 18 24
23 25 24 25 28 29 31 33 34 34 34 31 29 28 27 23 21 18 21 20 14 20 25 29 35 38 35 33 21 9 7 5 2 1 2 2 3 2 4 4 3 8 9 4 10 7 6 12 13 14 15 16 18 24
24 25 27 27 30 33 35 36 37 37 36 34 33 31 28 23 20 18 24 20 18 16 27 16 14 9 9 18 31 16 12 12 10 13 4 3 7 3 3 5 4 6 6 6 9 9 9 15 8 8 9 11 14 14
25 26 29 31 32 34 37 39 39 39 39 37 38 34 25 20 20 16 21 22 19 8 5 10 10 24 18 15 18 27 34 11 15 16 8 4 3 6 3 5 5 7 9 7 8 17 4 8 4 4 6 1 3 9
27 29 30 32 35 36 38 40 40 41 41 40 39 34 25 19 18 17 19 23 23 15 4 15 33 4 4 8 18 22 27 34 21 4 4 3 4 4 4 6 11 8 10 6 9 12 7 3 3 6 2 8 11 21
30 32 33 33 35 36 36 39 41 42 41 43 40 35 22 13 12 12 6 3 5 16 4 3 8 8 6 6 10 20 25 24 16 6 5 7 10 6 4 6 11 23 25 30 16 27 19 10 7 9 7 16 18 22
33 33 34 35 35 35 36 38 40 40 42 41 41 29 19 12 12 11 6 11 7 7 3 4 4 5 9 4 5 14 18 13 14 7 7 9 12 13 4 13 28 30 36 31 25 25 9 9 5 15 17 24 26 25
33 33 34 34 34 34 35 37 38 39 39 40 34 24 13 4 5 13 20 21 11 9 3 2 4 6 6 3 2 6 8 12 10 7 6 4 4 6 5 13 36 41 37 27 21 24 17 20 19 18 22 26 29 27
32 33 32 32 32 32 33 34 34 36 38 37 25 10 7 7 4 6 5 4 17 4 1 2 3 3 9 3 4 3 4 3 4 3 3 5 2 4 13 20 28 10 18 12 21 24 25 25 28 27 28 28 27 24
32 32 31 30 29 29 30 30 32 36 39 28 12 6 4 11 8 5 4 3 2 4 3 2 3 3 4 4 3 5 3 2 2 2 8 2 3 22 21 20 26 16 25 33 25 17 22 29 25 31 30 31 24 21
31 29 28 27 26 26 25 25 31 37 35 20 11 4 12 8 2 1 3 2 2 2 4 5 5 3 3 2 2 4 3 3 2 3 5 4 6 12 19 17 28 31 34 36 30 26 26 26 24 25 25 24 22 21
28 26 24 23 23 22 20 25 31 33 26 15 13 9 9 6 4 3 3 1 2 2 5 4 6 7 4 2 3 3 2 2 3 8 4 5 10 31 39 39 39 36 32 30 24 16 22 24 25 24 23 20 19 15
25 22 21 20 20 17 22 25 29 31 20 11 10 5 6 8 6 7 9 4 5 9 4 7 2 3 2 2 3 2 4 4 5 4 5 6 25 35 38 42 48 39 39 32 29 29 28 27 29 29 27 27 26 26
22 19 17 18 14 18 20 23 24 26 10 7 8 7 5 5 6 3 7 7 14 19 20 4 2 3 4 4 3 5 4 4 5 5 10 11 25 28 37 38 39 36 40 40 40 44 39 34 34 32 29 31 31 33
20 14 16 13 14 17 19 17 16 19 11 8 10 7 5 12 16 17 18 13 21 18 9 3 5 5 3 4 4 5 6 5 5 6 8 21 23 22 35 40 42 44 40 35 33 33 34 37 34 32 31 30 28 28
16 11 15 13 13 14 14 13 15 12 7 8 11 7 19 10 23 29 26 25 35 22 6 9 5 5 7 4 6 8 4 7 6 6 16 16 23 27 31 32 31 32 33 33 34 34 33 31 28 29 31 32 30 27
12 13 11 10 12 14 13 10 12 10 8 7 7 20 17 12 13 21 25 27 25 27 4 5 7 7 4 5 7 6 5 5 17 20 21 19 19 23 27 29 31 31 31 32 31 31 30 29 26 26 29 29 29 30
12 10 10 9 7 12 17 17 7 8 7 10 6 18 22 29 29 27 34 39 18 13 10 5 8 8 5 6 5 5 10 14 17 19 19 17 17 21 23 25 26 26 27 27 27 28 29 29 28 27 25 24 25 26
10 10 9 8 7 7 5 8 7 5 4 6 15 17 20 24 31 30 30 32 30 22 8 6 6 3 2 3 7 16 21 19 14 19 19 18 17 18 20 22 23 23 24 25 25 27 27 26 25 24 24 22 24 23
6 8 10 11 8 3 3 4 4 4 2 4 13 22 20 20 26 29 31 28 20 15 14 5 3 3 4 12 15 17 17 14 10 18 21 20 20 20 22 22 23 24 24 23 22 20 20 20 20 20 19 17 16 18
5 6 8 9 7 6 3 2 2 2 3 4 6 2 6 12 18 24 24 21 15 7 7 9 12 14 16 19 23 25 21 15 12 12 13 16 17 18 19 19 18 19 21 21 20 19 18 17 14 12 12 14 15 15
4 5 5 5 4 4 2 4 2 1 0 1 2 1 2 3 5 7 11 13 7 9 6 6 10 12 14 17 18 19 18 14 11 12 12 11 14 15 16 16 17 19 20 19 19 18 17 15 12 9 7 9 9 12
3 3 3 4 3 4 2 5 2 2 2 1 1 3 3 3 3 5 4 7 7 13 6 6 7 7 10 11 12 12 13 15 15 7 8 9 10 10 11 12 14 15 16 16 17 18 16 13 10 6 8 9 9 11
2 2 3 3 5 3 4 3 2 0 1 2 2 2 2 2 2 4 1 3 8 11 8 1 1 2 7 10 13 12 12 14 15 9 6 7 9 10 10 10 10 11 13 14 16 16 14 13 12 13 13 12 13 12
1 3 3 3 3 3 4 6 5 3 2 1 2 1 1 2 2 2 1 3 7 10 9 6 7 7 6 7 10 11 10 9 11 10 6 7 8 7 6 7 8 7 7 10 13 13 12 12 13 12 11 11 11 11
3 2 1 2 2 2 2 3 3 3 2 2 2 1 1 3 2 1 2 5 8 11 11 14 11 9 5 5 9 9 8 8 10 11 6 5 5 6 6 7 7 7 4 6 5 6 9 10 11 12 11 9 7 7
1 1 0 1 1 1 1 1 2 2 2 2 0 1 1 2 1 3 3 4 9 10 13 12 7 7 8 7 7 7 9 12 11 7 3 3 5 6 8 10 9 7 5 4 3 5 8 8 8 8 9 9 6 6
1 3 2 1 1 1 1 1 1 1 2 2 2 1 3 3 3 2 2 6 9 11 10 9 8 6 7 7 6 7 9 12 15 7 4 2 4 5 6 8 8 4 4 5 6 7 7 6 5 7 8 7 7 8
4 5 4 2 2 3 4 4 4 3 3 4 4 4 4 5 5 6 6 9 11 9 8 10 12 10 8 7 7 7 8 11 16 14 10 8 10 12 14 12 8 4 2 3 4 5 5 5 6 6 7 9 10 10
4 9 4 3 4 5 5 7 6 6 7 7 5 3 5 7 7 9 10 10 9 9 8 9 9 10 9 8 10 9 6 7 11 14 12 10 10 12 15 12 11 7 2 2 3 3 4 6 7 8 9 9 9 8
3 7 4 5 5 5 9 12 11 11 10 10 9 7 6 5 9 13 14 12 9 9 8 8 7 8 9 9 10 10 5 3 6 9 9 8 10 10 12 11 8 8 6 3 1 2 4 7 8 8 8 9 9 8
5 8 5 3 3 4 6 10 9 8 7 11 9 10 7 5 4 6 12 14 12 9 7 6 6 9 9 8 10 9 6 3 3 5 6 7 8 9 8 9 10 10 7 3 2 3 4 6 7 7 8 9 9 10
3 5 5 3 2 4 6 7 6 4 5 5 7 13 14 6 5 5 5 8 11 10 6 5 6 6 7 7 11 9 6 5 4 5 6 8 10 10 9 7 8 9 9 6 7 7 7 7 7 9 10 7 8 10
Wind_Direction
325 324 328 331 332 334 333 333 333 333 332 328 327 327 323 315 304 295 291 292 275 263 269 260 258 250 259 240 236 295 337 286 23 183 220 244 238 253 292 247 204 180 174 193 208 235 237 22 315 203 333 318 308 301
325 322 323 325 327 329 330 330 330 331 331 329 325 323 321 312 299 287 280 291 277 263 269 274 274 272 258 250 247 228 236 300 289 198 249 295 284 256 244 276 221 232 221 207 199 214 234 179 222 278 296 286 303 293
321 322 321 324 324 326 328 328 330 330 331 330 328 325 317 304 292 281 276 281 271 279 298 274 285 321 258 242 236 237 241 239 239 246 215 228 248 244 229 245 259 252 254 241 274 261 224 227 265 284 303 289 303 289
321 321 320 321 323 324 326 327 328 329 330 331 332 327 318 293 286 277 270 272 264 262 277 286 311 299 292 260 236 227 227 227 237 238 230 228 248 225 250 280 280 251 324 270 286 257 224 192 233 281 305 240 81 89
321 321 321 320 322 324 325 325 328 329 330 332 332 328 318 293 280 276 277 271 264 237 263 296 308 318 317 237 227 226 224 227 243 273 249 241 236 246 229 246 250 202 237 212 233 244 216 220 212 159 150 100 83 92
319 320 320 320 322 324 326 325 328 329 330 335 332 328 313 299 268 269 301 314 244 230 265 285 304 294 297 285 243 229 228 226 218 220 234 234 235 191 252 249 248 232 227 238 257 270 259 163 157 135 124 97 90 87
318 319 319 320 323 324 324 325 327 329 333 337 333 331 321 297 245 213 229 299 252 196 243 287 280 279 331 314 215 218 223 205 207 225 236 242 240 215 242 257 271 264 263 257 244 245 187 172 153 127 114 97 91 87
321 323 322 322 322 324 326 327 330 331 337 341 333 337 345 322 257 245 263 271 265 188 250 282 279 322 359 291 229 187 184 205 223 235 232 240 236 212 256 253 264 265 239 249 250 212 204 141 134 115 107 100 91 85
326 324 324 323 323 326 328 330 332 336 342 341 337 354 14 38 13 348 87 141 201 209 258 262 301 308 345 294 278 245 196 231 240 239 241 324 265 244 268 291 327 76 189 218 149 147 127 118 109 107 99 89 81 74
329 327 325 325 327 330 333 336 336 343 342 344 349 14 34 355 347 147 79 84 164 243 269 249 251 269 323 316 311 322 340 315 281 284 293 258 262 271 326 355 358 36 117 106 97 105 100 87 96 94 91 89 97 114
333 331 329 331 334 338 342 344 346 344 351 352 346 360 341 2 203 237 125 132 201 263 251 258 238 268 273 271 305 355 358 348 309 308 348 324 331 339 18 355 13 83 93 96 102 85 89 90 93 95 99 105 102 94
335 335 336 338 344 347 356 352 349 355 351 346 346 349 1 4 352 351 1 180 211 270 208 233 253 228 281 279 358 2 351 290 340 333 356 359 2 0 18 32 40 60 78 82 95 86 94 93 97 103 103 100 96 105
339 339 343 347 350 358 2 356 356 354 355 359 4 6 4 13 17 7 352 326 330 325 313 285 231 267 275 276 262 272 351 13 336 20 3 2 15 17 28 45 47 58 64 82 75 84 85 85 93 89 91 93 90 91
348 349 355 355 2 7 6 358 360 5 7 19 10 12 36 7 360 332 328 308 307 316 326 337 27 8 357 27 345 360 10 17 19 21 32 19 21 35 47 51 50 51 59 65 68 65 67 71 74 78 82 84 82 83
355 1 11 20 13 20 22 19 27 26 18 40 28 18 11 325 334 340 342 336 354 357 6 350 32 44 0 50 20 15 12 22 8 28 56 22 30 50 66 63 55 51 51 56 67 71 68 62 66 76 83 86 85 84
8 27 25 29 30 24 19 35 21 20 39 52 32 356 340 2 4 10 2 354 7 16 28 29 20 23 33 15 6 18 17 23 13 349 17 55 45 52 67 70 70 70 69 65 61 64 69 76 81 83 80 79 80 81
19 21 18 33 36 36 18 37 38 40 40 33 355 16 21 19 357 3 7 2 25 32 17 50 43 12 2 21 10 6 11 345 338 14 41 51 66 72 68 62 60 58 58 62 66 67 68 68 68 67 71 76 75 74
17 19 11 3 30 48 40 40 61 58 57 28 10 31 47 37 27 26 28 30 35 32 27 57 60 29 37 9 344 317 328 4 37 51 63 71 76 78 79 80 77 74 70 67 64 65 67 68 72 72 72 72 72 72
13 21 19 6 17 28 27 32 51 81 79 62 62 70 58 52 51 49 47 44 47 51 63 53 61 29 11 308 305 360 19 22 25 48 66 80 83 79 75 71 67 67 70 72 71 70 70 69 71 69 65 60 63 65
352 13 19 21 22 43 58 49 49 100 120 120 83 75 76 67 59 53 48 43 39 41 42 49 52 13 18 41 38 32 30 38 65 72 70 74 79 78 74 71 69 66 66 65 64 60 58 56 56 55 52 49 50 65
335 343 1 15 25 43 64 47 61 92 158 171 159 140 114 58 50 43 37 33 42 40 45 64 79 84 70 55 46 39 27 28 56 68 74 78 80 83 81 77 74 68 61 55 52 50 47 46 44 46 46 58 64 67
318 330 340 360 20 28 62 34 27 328 149 139 130 57 53 30 28 23 37 31 35 22 29 89 90 77 62 52 46 44 36 23 43 63 73 73 66 62 61 58 52 54 52 44 32 25 21 20 22 29 49 77 75 74
321 351 4 6 360 14 29 357 3 9 68 52 76 47 19 26 37 26 63 16 26 23 45 125 97 66 48 43 36 37 30 17 4 22 51 54 60 58 51 48 41 36 34 33 21 20 27 35 35 67 95 91 84 76
20 37 22 25 16 346 341 353 337 120 112 69 65 58 11 12 34 66 64 335 13 24 30 148 251 3 18 15 24 30 28 17 1 341 15 25 32 41 39 36 27 32 39 32 30 42 57 67 72 72 67 59 51 44
29 18 13 14 11 359 3 349 351 30 62 112 100 24 349 1 69 65 277 307 346 2 355 345 311 311 337 10 22 20 15 10 7 353 340 342 343 340 348 359 9 22 34 28 30 34 42 47 46 47 45 38 34 33
80 13 26 3 352 30 345 350 346 340 354 83 54 62 26 74 68 269 245 312 349 339 336 333 314 291 318 353 8 15 10 353 344 339 341 338 352 7 9 7 3 11 29 33 29 36 35 29 27 28 31 37 40 37
84 242 120 326 319 332 342 287 309 44 45 46 92 65 59 30 294 247 290 330 333 338 348 340 326 313 327 343 352 360 2 5 354 332 347 21 32 38 29 27 23 15 1 28 56 40 27 20 18 19 16 16 34 31
221 204 186 216 288 252 222 172 143 204 222 179 137 136 178 198 235 241 270 305 316 329 326 326 325 313 314 313 322 337 347 0 359 329 262 339 358 359 360 5 15 39 54 66 49 31 13 4 4 14 18 17 9 2
224 209 194 222 216 233 236 203 209 211 198 191 171 198 228 222 234 232 255 292 315 316 315 341 343 319 299 299 316 327 347 9 17 22 22 15 16 14 5 353 338 334 283 18 8 0 5 18 16 13 9 3 358 357
233 199 206 208 197 221 226 206 210 212 206 205 204 217 247 254 243 237 258 291 298 310 325 338 335 325 309 312 327 328 329 8 27 32 31 32 26 13 10 15 16 16 1 330 354 12 17 4 1 355 358 4 14 22
231 191 219 230 239 245 227 211 203 207 215 216 223 237 251 255 255 256 263 272 271 290 318 327 325 333 323 323 334 333 307 315 15 29 31 24 17 9 10 13 13 21 24 21 33 356 355 350 353 353 360 4 5 3
219 208 203 225 265 273 209 198 204 211 227 228 230 231 235 238 253 272 271 256 253 273 311 302 328 340 338 329 339 327 286 268 329 357 10 8 356 351 346 1 10 9 0 7 15 359 346 346 350 355 355 357 4 10
243 221 217 205 170 200 206 197 210 237 239 240 237 233 239 239 247 252 269 251 255 276 300 316 322 325 326 335 352 348 304 260 282 313 312 318 329 332 325 311 337 352 5 6 5 0 357 358 4 5 1 4 6 358